Home   Weather   Surgut   Past weeks

Flag for Russia Past Weather in Surgut, Russia — Yesterday and Last 2 Weeks

Now
-2 °F

Clear.


Feels Like: -14 °F
Forecast: -4 / 9 °F
Wind: 6 mph from South

Location: Surgut Airport

Current Time: Dec 3, 2016 at 6:43:13 pm

Latest Report: Dec 3, 2016 at 6:00 pm


Visibility: 4 mi

Pressure: 30.33 "Hg

Humidity: 84%

Dew Point: -6 °F

Location of SurgutLocation

Past Weather in Surgut — Graph

°F

Surgut Temperature Yesterday

Maximum temperature yesterday: -6 °F (at 11:00 pm)
Minimum temperature yesterday: -20 °F (at 2:00 am)
Average temperature yesterday: -14 °F

High & Low Weather Summary for the Past Weeks

 TemperatureHumidityPressure
High27 °F (Nov 25, 11:30 am)100% (Nov 23, 4:00 pm)31.37 "Hg (Nov 23, 4:00 pm)
Low-33 °F (Nov 18, 10:00 pm)57% (Nov 21, 9:30 am)29.21 "Hg (Nov 26, 2:00 am)
Average0 °F83%30.10 "Hg
* Reported Nov 18 5:00 pm — Dec 3 5:30 pm, Surgut, Weather by CustomWeather, © 2016

Note: Actual official high and low records may vary slightly from our data, if they occured in-between our weather recording intervals... More about our weather records

Advertising

Surgut Weather History for the Previous 24 Hours

Scroll right to see more
 ConditionsComfort  
Time TempWeatherWind HumidityBarometerVisibility
5:30 pm
Sat, Dec 3
-2 °FClear.6 mph84%30.33 "Hg4 mi
5:00 pm-2 °FClear.6 mph84%30.33 "Hg4 mi
4:30 pm-2 °FClear.6 mph84%30.33 "Hg4 mi
4:00 pm-2 °FClear.3 mph84%30.33 "Hg4 mi
3:30 pm-2 °FClear.6 mph84%30.33 "Hg4 mi
3:00 pm-2 °FClear.6 mph84%30.33 "Hg4 mi
2:30 pm-2 °FLight snow. Ice fog.6 mph84%30.33 "Hg3 mi
2:00 pm-2 °FIce fog.6 mph84%30.33 "Hg2 mi
1:30 pm-2 °FScattered clouds.6 mph84%30.33 "Hg4 mi
1:00 pm-2 °FScattered clouds.6 mph84%30.33 "Hg4 mi
12:30 pm-2 °FScattered clouds.6 mph84%30.33 "Hg4 mi
12:00 pm-2 °FScattered clouds.3 mph77%30.33 "Hg4 mi
11:30 am-4 °FScattered clouds.3 mph84%30.36 "Hg4 mi
11:00 am-4 °FScattered clouds.3 mph84%30.36 "Hg4 mi
10:30 am-4 °FScattered clouds.6 mph84%30.36 "Hg4 mi
10:00 am-4 °FScattered clouds.6 mph77%30.36 "Hg4 mi
9:30 am-6 °FScattered clouds.3 mph84%30.36 "Hg4 mi
9:00 am-6 °FScattered clouds.3 mph84%30.36 "Hg4 mi
8:30 am-4 °FPassing clouds.3 mph84%30.36 "Hg4 mi
8:00 am-6 °FPassing clouds.3 mph84%30.39 "Hg4 mi
7:30 am-4 °FClear.6 mph77%30.39 "Hg4 mi
7:00 am-4 °FClear.6 mph77%30.39 "Hg4 mi
6:00 am-6 °FClear.6 mph84%30.39 "Hg4 mi
5:30 am-6 °FClear.6 mph84%30.39 "Hg4 mi
5:00 am-6 °FPassing clouds.6 mph84%30.39 "Hg4 mi
4:30 am-6 °FClear.6 mph84%30.39 "Hg4 mi
4:00 am-6 °FClear.6 mph84%30.39 "Hg4 mi
3:30 am-6 °FPassing clouds.3 mph77%30.39 "Hg4 mi
3:00 am-6 °FClear.6 mph77%30.39 "Hg4 mi
2:30 am-8 °FClear.6 mph84%30.39 "Hg4 mi
2:00 am-8 °FPassing clouds.6 mph84%30.39 "Hg4 mi
1:30 am-8 °FPassing clouds.6 mph84%30.39 "Hg4 mi
1:00 am-8 °FPassing clouds.3 mph84%30.39 "Hg4 mi
12:30 am-6 °FPassing clouds.3 mph77%30.39 "Hg4 mi
12:00 am-6 °FPassing clouds.6 mph84%30.39 "Hg4 mi
11:30 pm
Fri, Dec 2
-6 °FPassing clouds.3 mph84%30.39 "Hg4 mi
11:00 pm-6 °FPassing clouds.6 mph84%30.39 "Hg4 mi
10:00 pm-8 °FPassing clouds.3 mph84%30.39 "Hg4 mi
9:30 pm-8 °FPassing clouds.6 mph77%30.36 "Hg4 mi
9:00 pm-8 °FPassing clouds.6 mph77%30.36 "Hg4 mi
8:30 pm-8 °FPassing clouds.6 mph77%30.39 "Hg4 mi
8:00 pm-9 °FPassing clouds.3 mph84%30.39 "Hg4 mi
7:30 pm-9 °FClear.6 mph84%30.39 "Hg4 mi
7:00 pm-9 °FClear.6 mph84%30.39 "Hg4 mi
6:30 pm-9 °FClear.3 mph84%30.39 "Hg4 mi
6:00 pm-9 °FClear.3 mph77%30.39 "Hg4 mi
Weather by CustomWeather, © 2016

See weather overviewHow to use our weather pages